Weather History for Edinburgh Airport, United Kingdom

Change the Weather History Date:

Monday, June 16, 2014

  Actual Average Record
Temperature  
Mean Temperature 58 °F -  
Max Temperature 68 °F 65 °F 69 °F (1999)
Min Temperature 48 °F 50 °F 42 °F (1997)
Degree Days  
Heating Degree Days 7    
Growing Degree Days 8 (Base 50)    
Moisture  
Dew Point 51 °F    
Average Humidity 78    
Maximum Humidity 100    
Minimum Humidity 56    
Precipitation  
Precipitation 0.00 in 0.07 in - ()
Sea Level Pressure  
Sea Level Pressure 30.44 in    
Wind  
Wind Speed 4 mph ()    
Max Wind Speed 12 mph    
Max Gust Speed -    
Visibility 6.2 miles    
Events      
Averages and records for this station are not official NWS values.
T = Trace of Precipitation, MM = Missing Value Source: Averaged Metar Reports

Daily Weather History Graph

Daily Weather History Graph

Search for Another Location

Airport:

Trip Planner

Search our weather history database for the weather conditions in past years. The results will help you decide how hot, cold, wet, or windy it might be!

Date:

Astronomy

Jun. 16, 2014 Rise Set
Actual Time 4:26 AM BST 10:01 PM BST
Civil Twilight 3:24 AM BST 11:03 PM BST
Nautical Twilight 1:46 AM BST 12:41 AM BST
Astronomical Twilight Sun does not rise Sun does not rise
Moon 11:56 PM BST (6/16) 8:53 AM BST (6/16)
Length of Visible Light 19h 39m
Length of Day
17h 34m
Waning Gibbous, 85% of the Moon is Illuminated
Jun 16
Waning Gibbous
Jun 19
Last Quarter
Jun 27
New
Jul 5
First Quarter
Jul 12
Full

Hourly Weather History & Observations

Time (BST) Temp. Dew Point Humidity Pressure Visibility Wind Dir Wind Speed Gust Speed Precip Events Conditions
12:20 AM 53.6 °F 51.8 °F 94% 30.45 in 6.2 mi North 3.5 mph - N/A   Unknown
12:50 AM 53.6 °F 51.8 °F 94% 30.45 in - Calm Calm - N/A   Clear
1:20 AM 53.6 °F 51.8 °F 94% 30.45 in - NE 2.3 mph - N/A   Clear
1:50 AM 50.0 °F 48.2 °F 94% 30.45 in - Variable 2.3 mph - N/A   Clear
2:20 AM 50.0 °F 48.2 °F 94% 30.45 in 6.2 mi Calm Calm - N/A   Mostly Cloudy
2:50 AM 50.0 °F 48.2 °F 94% 30.45 in 6.2 mi West 2.3 mph - N/A   Mostly Cloudy
3:20 AM 50.0 °F 50.0 °F 100% 30.45 in 6.2 mi WSW 3.5 mph - N/A   Overcast
3:50 AM 50.0 °F 50.0 °F 100% 30.45 in 6.2 mi WSW 3.5 mph - N/A   Mostly Cloudy
4:20 AM 51.8 °F 50.0 °F 94% 30.45 in 6.2 mi WSW 5.8 mph - N/A   Scattered Clouds
4:50 AM 50.0 °F 48.2 °F 94% 30.45 in 6.2 mi WSW 3.5 mph - N/A   Scattered Clouds
5:20 AM 48.2 °F 48.2 °F 100% 30.45 in 6.2 mi WSW 4.6 mph - N/A   Scattered Clouds
5:50 AM 50.0 °F 48.2 °F 94% 30.45 in - West 3.5 mph - N/A   Clear
6:20 AM 51.8 °F 50.0 °F 94% 30.45 in - WSW 4.6 mph - N/A   Clear
6:50 AM 53.6 °F 51.8 °F 94% 30.45 in 6.2 mi WSW 4.6 mph - N/A   Scattered Clouds
7:20 AM 55.4 °F 50.0 °F 82% 30.45 in 6.2 mi Variable 2.3 mph - N/A   Scattered Clouds
7:50 AM 57.2 °F 50.0 °F 77% 30.45 in 6.2 mi Variable 3.5 mph - N/A   Partly Cloudy
8:20 AM 59.0 °F 50.0 °F 72% 30.48 in - NNW 4.6 mph - N/A   Clear
8:50 AM 59.0 °F 48.2 °F 67% 30.48 in - Variable 3.5 mph - N/A   Clear
9:20 AM 60.8 °F 48.2 °F 63% 30.48 in - Variable 3.5 mph - N/A   Clear
9:50 AM 60.8 °F 48.2 °F 63% 30.48 in 6.2 mi ENE 5.8 mph - N/A   Partly Cloudy
10:20 AM 60.8 °F 50.0 °F 68% 30.48 in 6.2 mi ENE 5.8 mph - N/A   Scattered Clouds
10:50 AM 62.6 °F 48.2 °F 59% 30.45 in 6.2 mi East 4.6 mph - N/A   Scattered Clouds
11:20 AM 62.6 °F 48.2 °F 59% 30.45 in 6.2 mi Variable 2.3 mph - N/A   Partly Cloudy
11:50 AM 64.4 °F 50.0 °F 59% 30.45 in 6.2 mi Variable 3.5 mph - N/A   Partly Cloudy
12:20 PM 64.4 °F 50.0 °F 59% 30.45 in 6.2 mi NE 4.6 mph - N/A   Partly Cloudy
12:50 PM 66.2 °F 51.8 °F 60% 30.45 in 6.2 mi North 4.6 mph - N/A   Partly Cloudy
1:20 PM 66.2 °F 51.8 °F 60% 30.45 in 6.2 mi NW 5.8 mph - N/A   Partly Cloudy
1:50 PM 68.0 °F 51.8 °F 56% 30.45 in 6.2 mi East 5.8 mph - N/A   Partly Cloudy
2:20 PM 68.0 °F 51.8 °F 56% 30.42 in 6.2 mi ENE 4.6 mph - N/A   Partly Cloudy
2:50 PM 68.0 °F 53.6 °F 60% 30.42 in 6.2 mi East 5.8 mph - N/A   Partly Cloudy
3:20 PM 68.0 °F 53.6 °F 60% 30.42 in 6.2 mi Variable 3.5 mph - N/A   Partly Cloudy
3:50 PM 68.0 °F 53.6 °F 60% 30.42 in 6.2 mi North 4.6 mph - N/A   Partly Cloudy
4:50 PM 68.0 °F 55.4 °F 64% 30.42 in 6.2 mi NE 8.1 mph - N/A   Partly Cloudy
5:20 PM 66.2 °F 55.4 °F 68% 30.42 in - NE 9.2 mph - N/A   Clear
5:50 PM 66.2 °F 55.4 °F 68% 30.42 in - NNE 8.1 mph - N/A   Clear
6:20 PM 64.4 °F 55.4 °F 73% 30.42 in - NE 9.2 mph - N/A   Clear
6:50 PM 62.6 °F 53.6 °F 72% 30.42 in - NE 11.5 mph - N/A   Clear
7:20 PM 60.8 °F 53.6 °F 77% 30.42 in 6.2 mi NE 11.5 mph - N/A   Partly Cloudy
7:50 PM 59.0 °F 53.6 °F 82% 30.42 in 6.2 mi NE 9.2 mph - N/A   Partly Cloudy
8:20 PM 59.0 °F 53.6 °F 82% 30.42 in 6.2 mi NE 9.2 mph - N/A   Partly Cloudy
8:50 PM 59.0 °F 53.6 °F 82% 30.42 in 6.2 mi NE 5.8 mph - N/A   Partly Cloudy
9:20 PM 59.0 °F 53.6 °F 82% 30.42 in 6.2 mi NE 5.8 mph - N/A   Partly Cloudy
9:50 PM 57.2 °F 53.6 °F 88% 30.42 in 6.2 mi NE 6.9 mph - N/A   Partly Cloudy
10:20 PM 57.2 °F 53.6 °F 88% 30.42 in - NE 6.9 mph - N/A   Clear
10:50 PM 55.4 °F 51.8 °F 88% 30.42 in - NE 9.2 mph - N/A   Clear
11:20 PM 55.4 °F 51.8 °F 88% 30.45 in - NE 6.9 mph - N/A   Clear
11:50 PM 55.4 °F 51.8 °F 88% 30.45 in 6.2 mi NE 6.9 mph - N/A   Mostly Cloudy